Location: Wanzleben
(52.0609°N, 11.4408°E)
Time: 15:41:30
(UTC+00:00)

Cosmos 1072 Rocket - Pass Details

Date: 18 September 2020
Orbit: 949 x 1008 km, 82.9° (Epoch: 21 October)

Event Time Altitude Azimuth Distance (km) Brightness Sun altitude
Rises 18:48:58 0° 186° (S) 3,652 7.4 -14.0°
Reaches altitude 10° 18:51:26 10° 186° (S) 2,717 6.7 -14.3°
Maximum altitude 18:57:41 87° 97° (E) 995 4.5 -15.2°
Drops below altitude 10° 19:04:05 10° 11° (N) 2,776 7.0 -16.1°
Sets 19:06:38 0° 11° (N) 3,736 7.7 -16.5°
